Regional Weather Roundup
Issued by NWS

Home | Current Version | Previous Version | Text Only | Print | Product List | Glossary Off
Versions: 1 2 3 4 5 6 7 8 9 10 11 12 13 14 15 16 17 18 19 20 21 22 23 24 25 26 27 28 29 30 31 32 33 34 35 36 37 38 39 40 41 42 43 44 45 46 47 48 49 50

370
ASUS43 KBIS 280802
RWRND

NORTH DAKOTA REGIONAL WEATHER ROUNDUP
NATIONAL WEATHER SERVICE BISMARCK ND
300 AM CDT TUE MAR 28 2017

NOTE: "FAIR" INDICATES FEW OR NO CLOUDS BELOW 12,000 FEET WITH NO
SIGNIFICANT WEATHER AND/OR OBSTRUCTIONS TO VISIBILITY.


NDZ001>003-009>011-017-280900-
NORTHWEST NORTH DAKOTA

CITY           SKY/WX    TMP DP  RH WIND       PRES   REMARKS
WILLISTON      FAIR      38  35  89 NE7       30.01S
MINOT          FOG       35  34  96 N10       30.08S VSB 1
$$

NDZ018>021-031>035-040>046-280900-
SOUTHWEST NORTH DAKOTA

CITY           SKY/WX    TMP DP  RH WIND       PRES   REMARKS
BISMARCK       FAIR      35  32  88 NE8       30.03S
DICKINSON      FAIR      34  30  85 S12       29.95F
GARRISON         N/A     34  34 100 NE6       30.03S
HETTINGER ARPT CLOUDY    37  31  78 E8        29.98S
$$

NDZ004>008-012>016-024-026-027-054-280900-
NORTHEAST NORTH DAKOTA

CITY           SKY/WX    TMP DP  RH WIND       PRES   REMARKS
GRAND FORKS    LGT RAIN  35  34  96 N12       30.10F
GRND FRKS AFB  CLOUDY    34  34  99 N12       30.11R
DEVILS LAKE    FAIR      33  31  92 E6        30.10R
$$

NDZ022-023-025-028>030-036>039-047>053-280900-
SOUTHEAST NORTH DAKOTA

CITY           SKY/WX    TMP DP  RH WIND       PRES   REMARKS
FARGO          FOG       36  36 100 N7        30.08S VSB 1/4
JAMESTOWN      FOG       34  34 100 NE5       30.07S VSB 1/4
$$





USA.gov is the U.S. government's official web portal to all federal, state and local government web resources and services.